Flag for U.S.A. Weather past 2 weeks in Jackson, Mississippi, U.S.A.

Now
37 °F

Clear.


Feels Like: 37 °F
Forecast: 36 / 59 °F
Wind: No wind

Location: Hawkins Field

Current Time: Dec 21, 2014 at 5:10:28 AM

Latest Report: Dec 21, 2014 at 3:53 AM


Visibility: 10 mi

Pressure: 30.14 "Hg

Humidity: 89%

Dew point: 34 °F

Location of JacksonLocation

Historic Weather in Jackson — Graph

°F

Jackson temperature yesterday

Maximum temperature yesterday: 56 °F (at 2:53 PM)
Minimum temperature yesterday: 41 °F (at 11:53 PM)
Average temperature yesterday: 47 °F

Past Weeks' High & Low Weather Summary

 TemperatureHumidityPressure
High68 °F (Dec 6, 3:53 AM)94% (Dec 15, 7:53 PM)30.40 "Hg (Dec 15, 7:53 PM)
Low32 °F (Dec 11, 4:53 AM)28% (Dec 9, 1:53 PM)29.87 "Hg (Dec 15, 2:53 PM)
Average49 °F75%30.21 "Hg
* Reported Dec 6 3:53 AM — Dec 21 3:53 AM, Jackson, Weather by CustomWeather, © 2014

Note: Actual official high and low records may vary slightly from our data, if they occured in-between our weather recording intervals... More about our weather records

Advertising

Jackson weather history for previous 24 hours

 ConditionsComfort  
Time TempWeatherWind HumidityBarometerVisibility
3:53 AM
Dec 21
37 °FClear.No wind89%30.14 "Hg10 mi
2:53 AM38 °FClear.3 mph93%30.16 "Hg10 mi
1:53 AM39 °FClear.No wind93%30.16 "Hg10 mi
12:53 AM40 °FClear.No wind93%30.18 "Hg10 mi
11:53 PM
Dec 20
41 °FClear.No wind89%30.18 "Hg10 mi
10:53 PM44 °FClear.No wind82%30.19 "Hg10 mi
9:53 PM45 °FClear.3 mph80%30.18 "Hg10 mi
8:53 PM45 °FClear.No wind80%30.18 "Hg10 mi
7:53 PM47 °FClear.3 mph77%30.17 "Hg10 mi
6:53 PM49 °FClear.3 mph71%30.17 "Hg10 mi
5:53 PM50 °FClear.3 mph74%30.14 "Hg10 mi
4:53 PM53 °FSunny.3 mph64%30.14 "Hg10 mi
3:53 PM56 °FSunny.6 mph58%30.14 "Hg10 mi
2:53 PM56 °FSunny.5 mph60%30.14 "Hg10 mi
1:53 PM55 °FSunny.5 mph59%30.14 "Hg10 mi
12:53 PM53 °FPassing clouds.10 mph64%30.16 "Hg10 mi
10:53 AM50 °FSunny.9 mph71%30.22 "Hg10 mi
9:53 AM47 °FSunny.9 mph77%30.23 "Hg10 mi
8:53 AM44 °FLow clouds.8 mph85%30.22 "Hg9 mi
7:53 AM43 °FLow clouds.3 mph89%30.20 "Hg7 mi
6:53 AM43 °FMostly cloudy.3 mph89%30.19 "Hg10 mi
5:53 AM44 °FLow clouds.3 mph85%30.18 "Hg10 mi
Weather by CustomWeather, © 2014

See weather overviewHow to use our weather pages